Location: Saluda
(35.2377°N, 82.3468°W)
Time: 04:28:41
(UTC+00:00)

Vanguard 2 - Pass Details

Date: 05 October 2022
Orbit: 553 x 2933 km, 32.9° (Epoch: 04 December)

Event Time Altitude Azimuth Distance (km) Brightness Sun altitude
Rises 19:30:50 0° 265° (W) 4,820 12.2 39.1°
Reaches altitude 10° 19:33:32 10° 264° (W) 4,099 12.0 38.7°
Maximum altitude 19:45:30 82° 179° (S) 2,458 10.8 36.9°
Drops below altitude 10° 20:03:04 10° 95° (E) 5,748 11.7 34.1°
Sets 20:07:39 0° 95° (E) 6,780 12.0 33.4°
